BEESAT 9

Last updated on Tue Jun 04 2024 00:03:36 GMT+0000 (Coordinated Universal Time)

1 44412U 19038AC 24155.15144364 .04257349 26346-5 14707-2 0 9992 2 44412 97.6620 163.0065 0010501 212.6222 147.4421 16.25256943272627

Satellite not in orbit